Flag for U.S.A. Weather past 2 weeks in Dover, Delaware, U.S.A.

Now
29 °F

Clear.


Feels Like: 22 °F
Forecast: 26 / 37 °F
Wind: 6 mph from West

Location: Dover Air Force Base

Current Time: Dec 20, 2014 at 3:29:59 AM

Latest Report: Dec 20, 2014 at 2:58 AM


Visibility: 10 mi

Pressure: 30.22 "Hg

Humidity: 78%

Dew point: 23 °F

Location of DoverLocation

Historic Weather in Dover — Graph

°F

Dover temperature yesterday

Maximum temperature yesterday: 40 °F (at 1:58 PM)
Minimum temperature yesterday: 30 °F (at 11:58 PM)
Average temperature yesterday: 36 °F

Past Weeks' High & Low Weather Summary

 TemperatureHumidityPressure
High53 °F (Dec 17, 11:58 AM)100% (Dec 5, 5:58 PM)30.57 "Hg (Dec 5, 5:58 PM)
Low29 °F (Dec 20, 12:58 AM)40% (Dec 7, 4:58 PM)29.70 "Hg (Dec 10, 2:58 PM)
Average40 °F78%30.07 "Hg
* Reported Dec 5 1:58 AM — Dec 20 1:58 AM, Dover, Weather by CustomWeather, © 2014

Note: Actual official high and low records may vary slightly from our data, if they occured in-between our weather recording intervals... More about our weather records

Advertising

Dover weather history for previous 24 hours

 ConditionsComfort  
Time TempWeatherWind HumidityBarometerVisibility
1:58 AM
Dec 20
29 °FClear.6 mph76%30.20 "Hg10 mi
12:58 AM29 °FClear.3 mph76%30.20 "Hg10 mi
11:58 PM
Dec 19
30 °FClear.6 mph72%30.21 "Hg10 mi
10:58 PM31 °FClear.7 mph70%30.21 "Hg10 mi
9:58 PMN/AClear.7 mphN/A30.20 "Hg10 mi
8:58 PM32 °FClear.7 mph71%30.18 "Hg10 mi
7:58 PM33 °FClear.5 mph69%30.17 "Hg10 mi
6:58 PM33 °FClear.6 mph68%30.16 "Hg10 mi
5:58 PM36 °FClear.2 mph62%30.14 "Hg10 mi
4:58 PM37 °FClear.8 mph59%30.12 "Hg10 mi
3:58 PM40 °FSunny.8 mph55%30.11 "Hg10 mi
2:58 PM40 °FPartly sunny.15 mph55%30.08 "Hg10 mi
1:58 PM40 °FOvercast.14 mph56%30.08 "Hg10 mi
12:58 PM39 °FOvercast.13 mph58%30.08 "Hg10 mi
11:58 AM38 °FOvercast.14 mph59%30.09 "Hg10 mi
10:58 AM38 °FOvercast.13 mph62%30.11 "Hg10 mi
9:58 AM37 °FOvercast.14 mph62%30.11 "Hg10 mi
8:58 AM36 °FOvercast.14 mph65%30.10 "Hg10 mi
7:58 AM36 °FOvercast.9 mph67%30.09 "Hg10 mi
6:58 AM35 °FOvercast.10 mph67%30.08 "Hg10 mi
5:58 AM35 °FOvercast.8 mph67%30.06 "Hg10 mi
4:58 AM35 °FOvercast.8 mph68%30.06 "Hg10 mi
3:58 AM35 °FMostly cloudy.10 mph69%30.06 "Hg10 mi
Weather by CustomWeather, © 2014

See weather overviewHow to use our weather pages